AirNav   Air Wisconsin Up To $57,000 Bonus
 
 627 users online  

KHSD Sundance Airport
Oklahoma City, Oklahoma, USA

GOING TO OKLAHOMA CITY?


FAA INFORMATION EFFECTIVE 16 JUNE 2022

Location

FAA Identifier: HSD
Lat/Long: 35-36-06.6000N 097-42-22.2000W
35-36.110000N 097-42.370000W
35.6018333,-97.7061667
(estimated)
Elevation: 1192.9 ft. / 363.6 m (surveyed)
Variation: 04E (2020)
From city: 12 miles NW of OKLAHOMA CITY, OK
Time zone: UTC -5 (UTC -6 during Standard Time)
Zip code: 73099

Airport Operations

Airport use: Open to the public
Control tower: no
ARTCC: FORT WORTH CENTER
FSS: MC ALESTER FLIGHT SERVICE STATION
NOTAMs facility: HSD (NOTAM-D service available)
Attendance: 0600-2000
Wind indicator: lighted
Segmented circle: no
Lights: ACTVT VASI RWY 18 & 36; MIRL RWY 18/36 - CTAF.
Beacon: white-green (lighted land airport)
Operates sunset to sunrise.

Airport Communications

CTAF/UNICOM: 122.7
WX AWOS-3: 120.975 (405-283-9848)
OKE CITY APPROACH: 124.6
OKE CITY DEPARTURE: 124.6
CLEARANCE DELIVERY: 123.7
WX ASOS at PWA (5 nm SE): PHONE 405-798-2013
WX AWOS-3 at RCE (9 nm SW): 125.05 (405-354-2617)
WX ASOS at OKC (14 nm S): PHONE 405-686-4711
WX AWOS-3 at RQO (17 nm SW): 118.475 (405-262-0087)

Nearby radio navigation aids

VOR radial/distance  VOR name  Freq  Var
PWAr317/5.0WILEY POST VOR/DME113.4008E
IRWr335/15.3WILL ROGERS VORTAC114.1007E
IFIr121/19.0KINGFISHER VORTAC114.7009E

Airport Services

Fuel available: 100LL JET-A
100LL:100LL SELF SVC AVBL 24 HR WITH CREDIT CARD.
Parking: hangars and tiedowns
Airframe service: MAJOR
Powerplant service: MAJOR
Bottled oxygen: HIGH/LOW
AVBL DURG OPS HR MON-SAT.
Bulk oxygen: HIGH/LOW
AVBL DURG OPS HR MON-SAT.

Runway Information

Runway 18/36

Dimensions: 5001 x 100 ft. / 1524 x 30 m
Surface: concrete, in good condition
Runway edge lights: medium intensity
RUNWAY 18  RUNWAY 36
Latitude: 35-36.521587N35-35.697898N
Longitude: 097-42.387280W097-42.351513W
Elevation: 1152.9 ft.1192.9 ft.
Traffic pattern: rightleft
Runway heading: 174 magnetic, 178 true354 magnetic, 358 true
Markings: nonprecision, in good conditionnonprecision, in good condition
Visual slope indicator: 2-box VASI on left (3.00 degrees glide path)
VASI UNUSBL BYD 7 DEGS RIGHT & LEFT OF CNTRLN.
2-box VASI on left (3.00 degrees glide path)
VASI UNUSBL BYD 7 DEGS LEFT OF CNTLRN.
Touchdown point: yes, no lightsyes, no lights
Instrument approach: LOCALIZER
Obstructions: none19 ft. trees, 382 ft. from runway, 135 ft. right of centerline, 9:1 slope to clear
10 FT RD 103 FT FM RWY END; 3 FT FENCE 65 FT FM RWY END; 17 FT TREES 120 FT FM THR 150 FT R.

Airport Ownership and Management from official FAA records

Ownership: Privately-owned
Owner: HUNTER GROUP LLC
13000 N. SARA RD.
YUKON, OK 73099
Phone 405-373-3886
JERRY HUNTER
Manager: JUSTIN SKAGGS
13000 N. SARA RD.
YUKON, OK 73099
Phone 405-568-1663

Airport Operational Statistics

Aircraft based on the field: 210
Single engine airplanes: 170
Multi engine airplanes: 31
Jet airplanes: 8
Helicopters: 1
    
Aircraft operations: avg 124/day *
65% local general aviation
35% transient general aviation
<1% military
* for 12-month period ending 04 November 2019

Additional Remarks

FOR CD CTC OKE CITY APCH AT 405-681-5683.

Instrument Procedures

NOTE: All procedures below are presented as PDF files. If you need a reader for these files, you should download the free Adobe Reader.

NOT FOR NAVIGATION. Please procure official charts for flight.
FAA instrument procedures published for use from 16 June 2022 at 0901Z to 14 July 2022 at 0900z.

 
STARs - Standard Terminal Arrivals
GULLI THREE **NEW**   2 pages: [1] [2] (353KB)
 
IAPs - Instrument Approach Procedures
RNAV (GPS) RWY 18   download (208KB)
RNAV (GPS) RWY 36   download (183KB)
VOR RWY 18   download (162KB)
NOTE: Special Alternate Minimums apply   download (121KB)
NOTE: Special Take-Off Minimums/Departure Procedures apply   download (851KB)

Other nearby airports with instrument procedures:

KPWA - Wiley Post Airport (5 nm SE)
KRCE - Clarence E Page Municipal Airport (9 nm SW)
KOKC - Will Rogers World Airport (14 nm S)
KRQO - El Reno Regional Airport (17 nm SW)
KTIK - Tinker Air Force Base (19 nm SE)
 
Loc | Ops | Rwys | IFR | FBO | Links
Com | Nav | Svcs | Stats | Notes
Area around KHSD (Sundance Airport)
 
Road maps at: MapQuest Bing Google
 
Aerial photo
WARNING: Photo may not be current or correct
Aerial photo of KHSD (Sundance Airport)
Photo taken 23-Jun-2016
looking south.

Do you have a better or more recent aerial photo of Sundance Airport that you would like to share? If so, please send us your photo.

 
Sectional chart

 
Airport diagram
CAUTION: Diagram may not be current
Diagram of KHSD (Sundance Airport)
 
Airport distance calculator
Flying to Sundance Airport? Find the distance to fly.

From to KHSD

Sunrise and sunset
Times for 07-Jul-2022
 Local
(UTC-5)
 Zulu
(UTC)
Morning civil twilight05:5310:53
Sunrise06:2311:23
Sunset20:4901:49
Evening civil twilight21:1802:18

Current date and time
Zulu (UTC)  07-Jul-2022 10:38:42
Local (UTC-5)  07-Jul-2022 05:38:42
 
METAR
KHSD 071015Z AUTO 20011KT 10SM FEW110 29/16 A2989 RMK A01
KPWA 
5nm SE 
070953Z AUTO 20011KT 10SM CLR 29/16 A2990 RMK AO2 SLP101 T02940161
KRCE 
9nm SW 
071015Z AUTO 19009KT 10SM SCT110 27/16 A2990 RMK AO2
KOKC 
14nm S 
070952Z 19007KT 10SM FEW100 FEW250 25/17 A2991 RMK AO2 SLP107 T02500172
KRQO 
17nm SW 
071015Z AUTO 19011KT 10SM CLR 26/16 A2992 RMK AO2 T02640165
KTIK 
20nm SE 
070956Z AUTO 19008KT 10SM BKN110 26/17 A2989 RMK AO2 SLP110 T02610166
TAF
KOKC 
14nm S 
070520Z 0706/0806 16012KT P6SM SCT250 FM071400 20014G20KT P6SM SCT080 SCT250 FM080000 16011KT P6SM SCT150 BKN250
KTIK 
20nm SE 
070900Z 0709/0815 16010KT 9999 SCT100 QNH2983INS BECMG 0714/0715 20012G20KT 9999 SCT100 QNH2981INS BECMG 0723/0724 17010KT 9999 SKC QNH2981INS TX40/0722Z TN25/0712Z
NOTAMs
Click for the latest NOTAMs
NOTAMs are issued by the DoD/FAA and will open in a separate window not controlled by AirNav.

 

 
 

FBO, Fuel Providers, and Aircraft Ground Support

  
 Business Name 
 
 Contact 
 
 Services / Description 
 
Fuel Prices
 
Comments
  
Sundance Airport LLC UNICOM 122.70
405-373-3886
[web site]
[email]
New AWOS and NEVER A RAMP FEE. Maintenance Department offers MAJOR comprehensive repair including Annuals, and Sundance Flight Academy includes a Redbird FMX Simulator. New Courtesy Cars and completely remodeled, state-of-the-art FBO.
More info and photos of Sundance Airport LLC
 
AirBoss™ fuel program   AVTRIP   Crew cars   Enterprise Rent-A-Car   Hertz  
 
EPIC
100LL Jet A
FS $7.25 $6.00 
SS $6.95 --- 
GUARANTEED
AirBossMEMBERS
ONLY
Discounts
LoginJoin
 
   3 read write
Alternatives at nearby airports
IMPORTANT: Note that the FBOs below are NOT at KHSD but at other nearby airports. Do not expect services from these FBOs to be available at KHSD.
Located at KRQO
 El Reno Flight Center
UNICOM 122.80
405-295-9343
[web site]
[email]

Like us on facebook
At KRQO (El Reno Regional Airport), 17 miles WSW

Come fly to one of OKC Metro's newest FBO at KRQO! With plans to build a new terminal building in 2022, El Reno Flight Center will be the perfect fuel stop. El Reno Regional Airport is serving as the Gateway to Central Oklahoma with easy airspace, courtesy cars for hassle-free trips to El Reno and OKC (Verify availability), and great fuel prices! Let us earn your business!
More info and photos of El Reno Flight Center (KRQO)
Located at KRQO
Phillips 66
100LL Jet A
FS $6.55 $5.80 
SS $6.40 $5.80 
GUARANTEED
 
   8 read write
FS=Full service
SS=Self service
Update Fuel Prices
 

Would you like to see your business listed on this page?

 If your business provides an interesting product or service to pilots, flight crews, aircraft, or users of the Sundance Airport, you should consider listing it here.  To start the listing process, click on the button below
 
Add a business
 

Other Pages about Sundance Airport

sundanceairport.com
 
Update a link
 
Copyright © AirNav, LLC. All rights reserved. Privacy Policy  Contact